EZY13FR EHAM-EGGW

Flight info

Callsign EZY13FR
Flight time N/A
Altitude 24000
Route IDRID M40 RINIS
Aircraft A20N/M-SDE2E3FGHIRWXY/LB1

Departure

Time N/A
Airport Amsterdam Airport Schiphol (EHAM)

Arrival

Time 2026-04-27 18:53
Airport London Luton Airport (EGGW)
Time Latitude Longitude Altitude Speed Heading
2026-04-27 18:31 52.19010 1.01747 14845 ft 338 kts 278°
2026-04-27 18:32 52.19305 0.97905 14794 ft 338 kts 278°
2026-04-27 18:32 52.19592 0.94159 14740 ft 337 kts 278°
2026-04-27 18:32 52.19886 0.90310 14687 ft 337 kts 278°
2026-04-27 18:32 52.20174 0.86517 14361 ft 337 kts 278°
2026-04-27 18:33 52.20461 0.82724 13868 ft 337 kts 278°
2026-04-27 18:33 52.20741 0.78995 13291 ft 335 kts 278°
2026-04-27 18:33 52.21022 0.75247 12746 ft 332 kts 278°
2026-04-27 18:33 52.21300 0.71527 12185 ft 330 kts 278°
2026-04-27 18:34 52.21575 0.67824 11615 ft 328 kts 278°
2026-04-27 18:34 52.21845 0.64174 11331 ft 323 kts 278°
2026-04-27 18:34 52.22116 0.60504 11257 ft 327 kts 278°
2026-04-27 18:34 52.22384 0.56839 11248 ft 326 kts 278°
2026-04-27 18:35 52.22653 0.53157 11250 ft 326 kts 278°
2026-04-27 18:35 52.22921 0.49481 11249 ft 326 kts 278°
2026-04-27 18:35 52.23187 0.45804 11249 ft 327 kts 278°
2026-04-27 18:35 52.23452 0.42130 11246 ft 327 kts 278°
2026-04-27 18:36 52.23716 0.38451 11171 ft 323 kts 278°
2026-04-27 18:36 52.23969 0.34886 11052 ft 308 kts 278°
2026-04-27 18:36 52.24207 0.31525 10880 ft 289 kts 278°
2026-04-27 18:36 52.24431 0.28356 10601 ft 275 kts 278°
2026-04-27 18:37 52.24649 0.25290 10178 ft 269 kts 278°
2026-04-27 18:37 52.24867 0.22219 10059 ft 274 kts 278°
2026-04-27 18:37 52.25085 0.19123 10006 ft 275 kts 278°
2026-04-27 18:37 52.25302 0.16023 9938 ft 274 kts 278°
2026-04-27 18:38 52.25512 0.12994 9873 ft 272 kts 278°
2026-04-27 18:38 52.25698 0.09914 9809 ft 274 kts 271°
2026-04-27 18:38 52.25272 0.06885 9759 ft 279 kts 245°
2026-04-27 18:38 52.24057 0.04399 9717 ft 284 kts 226°
2026-04-27 18:39 52.22690 0.02318 9661 ft 285 kts 226°
2026-04-27 18:39 52.21240 0.00122 9612 ft 284 kts 226°
2026-04-27 18:39 52.19793 -0.02064 9553 ft 284 kts 226°
2026-04-27 18:39 52.18349 -0.04249 9499 ft 284 kts 226°
2026-04-27 18:40 52.16907 -0.06429 9444 ft 283 kts 226°
2026-04-27 18:40 52.15462 -0.08605 9388 ft 283 kts 226°
2026-04-27 18:40 52.14018 -0.10780 9334 ft 283 kts 226°
2026-04-27 18:40 52.12575 -0.12951 9284 ft 283 kts 226°
2026-04-27 18:41 52.11134 -0.15115 9263 ft 282 kts 226°
2026-04-27 18:41 52.09694 -0.17279 9264 ft 282 kts 226°
2026-04-27 18:41 52.08251 -0.19441 9261 ft 282 kts 226°
2026-04-27 18:41 52.06900 -0.21747 9263 ft 281 kts 234°
2026-04-27 18:42 52.05685 -0.24221 9265 ft 279 kts 234°
2026-04-27 18:42 52.04871 -0.25896 9268 ft 281 kts 235°
2026-04-27 18:42 52.03314 -0.29232 9260 ft 278 kts 243°
2026-04-27 18:42 52.02376 -0.31974 9263 ft 277 kts 244°
2026-04-27 18:43 52.01457 -0.34728 9264 ft 277 kts 244°
2026-04-27 18:43 52.00538 -0.37486 9259 ft 278 kts 245°
2026-04-27 18:43 51.99591 -0.40197 9219 ft 273 kts 241°
2026-04-27 18:43 51.98497 -0.42644 9142 ft 265 kts 231°
2026-04-27 18:44 51.97132 -0.44564 9056 ft 256 kts 214°
2026-04-27 18:44 51.95488 -0.45600 8965 ft 260 kts 198°
2026-04-27 18:44 51.93774 -0.46903 8880 ft 281 kts 222°
2026-04-27 18:44 51.92502 -0.49249 8663 ft 275 kts 237°
2026-04-27 18:45 51.91498 -0.51849 8189 ft 270 kts 249°
2026-04-27 18:45 51.90769 -0.54635 7626 ft 268 kts 251°
2026-04-27 18:45 51.90064 -0.57426 7051 ft 267 kts 251°
2026-04-27 18:45 51.89363 -0.60197 6480 ft 265 kts 251°
2026-04-27 18:46 51.88662 -0.62956 5922 ft 263 kts 251°
2026-04-27 18:46 51.87977 -0.65596 5747 ft 246 kts 250°
2026-04-27 18:46 51.87330 -0.68065 5570 ft 232 kts 251°
2026-04-27 18:46 51.86514 -0.70294 5128 ft 235 kts 227°
2026-04-27 18:47 51.85095 -0.71637 4585 ft 242 kts 195°
2026-04-27 18:47 51.83459 -0.71514 4250 ft 231 kts 153°
2026-04-27 18:47 51.82367 -0.69891 4128 ft 204 kts 108°
2026-04-27 18:47 51.82206 -0.67754 4051 ft 195 kts 78°
2026-04-27 18:48 51.82467 -0.65627 3907 ft 190 kts 70°
2026-04-27 18:48 51.82832 -0.63602 3710 ft 188 kts 69°
2026-04-27 18:48 51.83184 -0.61568 3490 ft 188 kts 69°
2026-04-27 18:48 51.83535 -0.59546 3254 ft 186 kts 70°
2026-04-27 18:49 51.83884 -0.57531 3004 ft 186 kts 70°
2026-04-27 18:49 51.84225 -0.55551 2801 ft 179 kts 70°
2026-04-27 18:49 51.84554 -0.53652 2533 ft 171 kts 70°
2026-04-27 18:49 51.84859 -0.51881 2304 ft 156 kts 69°
2026-04-27 18:50 51.85135 -0.50278 2094 ft 141 kts 69°
2026-04-27 18:50 51.85306 -0.49293 1952 ft 133 kts 69°
2026-04-27 18:50 51.85543 -0.47929 1810 ft 124 kts 69°
2026-04-27 18:50 51.85779 -0.46572 1631 ft 124 kts 70°
2026-04-27 18:51 51.86008 -0.45249 1455 ft 121 kts 68°
2026-04-27 18:51 51.86240 -0.43910 1292 ft 125 kts 68°
2026-04-27 18:51 51.86474 -0.42552 1104 ft 125 kts 68°
2026-04-27 18:51 51.86719 -0.41191 943 ft 126 kts 67°
2026-04-27 18:52 51.86949 -0.39818 757 ft 129 kts 69°
2026-04-27 18:52 51.87182 -0.38440 576 ft 125 kts 66°
2026-04-27 18:52 51.87408 -0.37184 521 ft 95 kts 72°
2026-04-27 18:53 51.87598 -0.36069 516 ft 32 kts 73°
2026-04-27 18:53 51.87667 -0.35936 516 ft 8 kts
2026-04-27 18:53 51.87717 -0.35945 516 ft 7 kts 346°
2026-04-27 18:53 51.87737 -0.35954 516 ft 2 kts 341°
2026-04-27 18:54 51.87769 -0.35984 516 ft 9 kts 317°
2026-04-27 18:54 51.87781 -0.36102 518 ft 9 kts 259°
2026-04-27 18:54 51.87760 -0.36190 518 ft 9 kts 249°
2026-04-27 18:54 51.87754 -0.36219 518 ft 0 kts 253°
2026-04-27 18:55 51.87750 -0.36245 518 ft 9 kts 257°
2026-04-27 18:55 51.87735 -0.36362 518 ft 13 kts 257°
2026-04-27 18:55 51.87710 -0.36511 519 ft 14 kts 254°
2026-04-27 18:55 51.87693 -0.36612 520 ft 10 kts 254°
2026-04-27 18:56 51.87674 -0.36715 522 ft 10 kts 253°
2026-04-27 18:56 51.87653 -0.36830 524 ft 11 kts 255°
2026-04-27 18:56 51.87682 -0.36945 523 ft 13 kts 328°
2026-04-27 18:56 51.87789 -0.37009 515 ft 20 kts 340°
2026-04-27 18:57 51.87938 -0.37090 508 ft 24 kts 340°
2026-04-27 18:57 51.88100 -0.37178 510 ft 24 kts 343°
2026-04-27 18:57 51.88219 -0.37249 516 ft 14 kts 320°
2026-04-27 18:57 51.88226 -0.37354 516 ft 10 kts 253°
2026-04-27 18:58 51.88207 -0.37433 516 ft 7 kts 249°
2026-04-27 18:58 51.88208 -0.37521 516 ft 0 kts 279°
2026-04-27 18:58 51.88204 -0.37525 516 ft 1 kts 229°
2026-04-27 18:59 51.88196 -0.37532 516 ft 1 kts 210°
2026-04-27 18:59 51.88181 -0.37544 516 ft 2 kts 206°
2026-04-27 18:59 51.88164 -0.37556 516 ft 1 kts 203°
2026-04-27 18:59 51.88159 -0.37559 516 ft 1 kts 202°
2026-04-27 19:00 51.88154 -0.37562 516 ft 1 kts 202°
2026-04-27 19:00 51.88153 -0.37563 516 ft 0 kts 203°